Skip Page Navigation
NASA JPL Caltech
NASA Logo - Jet Propulsion Laboratory + View the NASA Portal
+ Center for Near-Earth Object Studies
JPL Home Earth Solar System Stars & Galaxies Technology
JPL Solar System Dynamics
BODIES ORBITS EPHEMERIDES TOOLS PHYSICAL DATA DISCOVERY FAQ SITE MAP
JPL Small-Body Database Browser
Search: [ help ]  
214081 Balavoine (2004 HL31)
Classification: Main-belt Asteroid          SPK-ID: 2214081
Ephemeris | Orbit Diagram | Orbital Elements | Mission Design | Physical Parameters | Discovery Circumstances | Close-Approach Data ]

[ show orbit diagram ]
Orbital Elements at Epoch 2459000.5 (2020-May-31.0) TDB
Reference: JPL 14 (heliocentric ecliptic J2000)
 Element Value Uncertainty (1-sigma)   Units 
e .1230599253731085 6.3735e-08  
a 2.977212122644024 3.6548e-08 au
q 2.610836621011536 1.9431e-07 au
i 8.689680124879812 7.2061e-06 deg
node 76.2842770265456 4.0928e-05 deg
peri 1.334500503517006 4.8838e-05 deg
M 168.4030444303216 2.4907e-05 deg
tp 2458122.770828114857
(2018-Jan-04.27082811)
0.00012927 TDB
period 1876.346730829991
5.14
3.4551e-05
9.46e-08
d
yr
n .1918621937432407 3.5329e-09 deg/d
Q 3.343587624276511 4.1046e-08 au
  Orbit Determination Parameters
   # obs. used (total)      237  
   data-arc span      6422 days (17.58 yr)  
   first obs. used      2001-09-12  
   last obs. used      2019-04-13  
   planetary ephem.      DE431  
   SB-pert. ephem.      SB431-N16  
   condition code      0  
   norm. resid. RMS      .57528  
   source      ORB  
   producer      Otto Matic  
   solution date      2019-Jul-13 18:26:07  

Additional Information
 Earth MOID = 1.62625 au 
 Jupiter MOID = 1.91404 au 
 T_jup = 3.232 
[ show covariance matrix ]

Ephemeris | Orbit Diagram | Orbital Elements | Mission Design | Physical Parameters | Discovery Circumstances | Close-Approach Data ]

Physical Parameter Table
Parameter Symbol Value Units Sigma Reference Notes
absolute magnitude H 15.6   n/a MPO433400  

214081 Balavoine           Discovered 2004 Apr. 17 by M. Ory at Nogales.
Daniel Balavoine (1952-1986) was a French singer and songwriter. He was hugely popular in the French-speaking world, and inspired many singers in the 1980s, such as Jean-Jacques Goldman and Michel Berger.
NOTE: some special characters may not display properly (any characters within {} are an attempt to place the proper accent above a character)
Reference: 20120831/MPCPages.arcLast Updated: 2012-09-04

[ show close-approach data ]
Ephemeris | Orbit Diagram | Orbital Elements | Mission Design | Physical Parameters | Discovery Circumstances | Close-Approach Data ]
ABOUT SSD CREDITS/AWARDS PRIVACY/COPYRIGHT GLOSSARY LINKS
FirstGov 2020-Aug-04 20:42 UT
(server date/time)  
NASA Home Page
Site Manager:   Ryan S. Park
Webmaster  Alan B. Chamberlin